Location: *
(40.7765°S, 106.5327°E)
Time: 15:17:39
(UTC+00:00)

RESURS DK-1 - Pass Details

Date: 26 May 2022
Orbit: 554 x 559 km, 69.9° (Epoch: 04 July)

Event Time Altitude Azimuth Distance (km) Brightness Sun altitude
Rises 10:41:35 0° 194° (SSW) 2,785 5.9 -11.9°
Reaches altitude 10° 10:44:11 10° 179° (S) 1,880 4.9 -12.4°
Maximum altitude 10:47:35 23° 125° (SE) 1,219 3.5 -13.0°
Enters shadow 10:48:43 21° 100° (E) 1,306 3.6 -13.2°
